www.pogodaiklimat.ru

Погода и климат >> Архив погоды >> Пакистан >> Наровал


ПОГОДА в Наровале

  • Прогноз погоды в Наровале
  • Монитор погоды в Наровале

АРХИВ ПОГОДЫ в Наровале

Время (UTC), дата Ветер
(напр.,м/с)
 
Видим.   Явления Облачность Т
(С)
Тd
(С)
f
(%)
Тe
(С)
Тes
(С)
Комфортность P
(гПа)
Po
(гПа)
Тmin
(С)
Tmax
(С)
R
(мм)
R24
(мм)
S
(см)
15 14.05 штиль 0 2000 м мгла ясно +31.0 +14.8 37 +33 +33 душно 1004.1 977.9
18 14.05 штиль 0 2000 м дым 5/3 1200 м
[Sc Ac trans]
+28.0 +16.9 51 +32 +32 душно 1005.4 978.9
21 14.05 штиль 0 2000 м дым 5/3 1200 м
[Sc Ac trans]
+25.0 +17.0 61 +29 +29 душно 1005.0 978.3
00 15.05 С 1 2000 м дым 5/3 1200 м
[Sc Ac trans]
+23.0 +14.6 59 +27 +27 душно 1005.0 978.1
03 15.05 З 2 2000 м дым 9/4 1200 м
[Sc As op]
+26.0 +16.4 55 +29 +31 душно 1007.4 980.7 +22.1
06 15.05 С 1 2000 м мгла 9/3 1200 м
[Sc As op]
+30.0 +17.5 47 +34 +39 очень
душно
1009.0 982.6
09 15.05 З 1 2000 м мгла 9/3 1200 м
[Sc As op]
+34.5 +17.6 37 +38 +43 очень
душно
1007.1 981.1
12 15.05 Ю 2 2000 м мгла 9/3 1200 м
[Sc As op]
+33.0 +17.6 40 +37 +38 очень
душно
1005.7 979.7 +35.3
15 15.05 штиль 0 2000 м дым 9/3 1200 м
[Sc Ac trans]
+30.0 +19.4 53 +36 +36 очень
душно
1005.4 979.1
18 15.05 штиль 0 2000 м дым 9/3 1200 м
[Sc Ac trans]
+27.0 +18.5 60 +32 +32 очень
душно
1006.6 980.0
21 15.05 СВ 2 2000 м гроза, ливневой дождь 10/5 900 м
[Cb cap As op]
+25.0 +18.8 68 +30 +30 душно 1008.9 982.1 3
00 16.05 ЮВ 3 2000 м гроза, ливневой дождь 10/5 900 м
[Cb cap As op]
+19.0 +17.4 90 +21 +21 комфорт 1007.3 980.0 7
03 16.05 СВ 4 4000 м дым 8/0
[Ac trans Ci fib]
+23.0 +18.3 75 +29 +32 очень
душно
1008.4 981.4 +18.0 0.0
06 16.05 В 3 4000 м дым 8/0
[Ac trans Ci fib]
+28.5 +17.5 51 +33 +44 очень
душно
1009.6 983.1
09 16.05 В 1 4000 м дым 10/5 1200 м
[Sc Ac trans Ci fib]
+28.0 +16.9 51 +32 +37 душно 1008.8 982.3
15 16.05 штиль 0 4000 м дым 6/3 1200 м
[Sc Ac trans]
+27.0 +17.6 56 +31 +31 душно 1006.7 980.1
18 16.05 штиль 0 2000 м дым 4/0
[Ac trans]
+24.0 +17.6 67 +28 +28 душно 1007.9 981.0
21 16.05 штиль 0 2000 м дым 5/0
[Ac trans]
+23.0 +17.4 71 +28 +28 душно 1007.2 980.3
00 17.05 штиль 0 2000 м дым 4/0
[Ac trans]
+21.0 +16.9 77 +24 +24 комфорт 1006.4 979.3
03 17.05 штиль 0 2000 м дым 8/0
[Ac trans Ci fib]
+23.0 +18.3 75 +29 +36 очень
душно
1007.0 980.1 +20.0
06 17.05 З 1 2000 м дым 8/0
[Ac trans Ci fib]
+29.0 +19.5 57 +35 +51 опасность
солнечного
удара
1008.2 981.8
09 17.05 штиль 0 2000 м мгла 9/4 1200 м
[Sc As op]
+28.5 +16.6 49 +32 +37 душно 1007.4 980.9
12 17.05 З 1 2000 м дым 8/3 1200 м
[Sc Ac trans]
+25.0 +17.9 65 +29 +31 душно 1006.8 980.0 +30.5
15 17.05 штиль 0 2000 м дым {морось} 10/5 1050 м
[Sc As op]
+22.5 +16.8 70 +27 +27 душно 1007.7 980.7 0.0
18 17.05 штиль 0 2000 м дым 8/4 1200 м
[Sc As op]
+21.5 +16.6 74 +25 +25 комфорт 1007.6 980.5
21 17.05 штиль 0 2000 м дым 8/4 1200 м
[Sc As op]
+21.0 +16.9 77 +24 +24 комфорт 1007.2 980.1
00 18.05 З 1 2000 м дым 9/5 1200 м
[Sc As op]
+21.0 +17.8 82 +26 +26 душно 1006.2 979.1
03 18.05 С 1 2000 м дым 6/3 1200 м
[Sc Ac trans]
+23.0 +17.4 71 +28 +33 душно 1007.7 980.7 +19.6
06 18.05 штиль 0 4000 м мгла 5/0
[Ac trans]
+30.0 +16.6 44 +33 +52 опасность
солнечного
удара
1008.4 982.0
09 18.05 З 2 4000 м мгла 3/0
[Ac trans]
+33.0 +15.5 35 +35 +49 душно 1007.3 981.2
12 18.05 З 1 4000 м мгла 3/0
[Ac trans]
+34.0 +16.9 36 +37 +40 очень
душно
1005.6 979.6 +35.1
15 18.05 штиль 0 4000 м дым ясно +30.0 +19.4 53 +36 +36 очень
душно
1005.6 979.3
18 18.05 штиль 0 2000 м дым 3/0
[Ac trans]
+26.0 +19.1 66 +31 +31 очень
душно
1006.0 979.4
21 18.05 З 2 2000 м дым 5/0
[Ac trans]
+25.0 +17.0 61 +29 +29 душно 1005.9 979.2
00 19.05 штиль 0 2000 м дым 4/0
[Ac trans]
+23.0 +18.3 75 +29 +29 очень
душно
1005.6 978.7
03 19.05 штиль 0 2000 м дым ясно +27.0 +17.6 56 +31 +41 душно 1006.6 980.0 +22.7
06 19.05 З 1 4000 м мгла ясно +33.0 +17.6 40 +37 +60 опасность
солнечного
удара
1007.5 981.4
09 19.05 З 3 4000 м мгла ясно +36.5 +16.3 30 +39 +53 опасность
солнечного
удара
1006.8 981.0
12 19.05 штиль 0 4000 м мгла ясно +36.0 +15.6 30 +38 +43 очень
душно
1004.9 979.1 +37.5
15 19.05 штиль 0 4000 м мгла ясно +34.0 +14.8 32 +36 +36 душно 1005.4 979.5
18 19.05 С 3 2000 м мгла ясно +30.0 +15.6 42 +33 +33 душно 1008.4 982.0
21 19.05 С 5 2000 м дым 9/3 1200 м
[Sc As op]
+26.0 +16.4 55 +29 +29 душно 1008.1 981.4
00 20.05 штиль 0 2000 м дым 5/3 1200 м
[Sc Ac trans]
+23.0 +16.5 67 +28 +28 душно 1007.3 980.4
03 20.05 штиль 0 2000 м дым 5/3 1200 м
[Sc Ac trans]
+27.0 +15.7 50 +30 +36 душно 1008.2 981.6 +21.5
06 20.05 З 1 4000 м мгла 3/0
[Ci fib]
+35.0 +14.1 29 +36 +58 опасность
солнечного
удара
1008.9 982.9
09 20.05 З 1 4000 м мгла ясно +38.0 +11.6 21 +37 +57 опасность
солнечного
удара
1007.7 982.0
12 20.05 С 2 4000 м мгла ясно +37.0 +12.5 23 +37 +40 очень
жарко
1006.1 980.4 +39.0
00 21.05 штиль 0 2000 м дым ясно +23.0 +16.5 67 +28 +28 душно 1006.1 979.2
09 21.05 С 1 4000 м мгла 4/0
[Ac trans]
+38.5 +13.7 23 +39 +54 опасность
солнечного
удара
1006.4 980.8
12 21.05 З 1 4000 м мгла 3/3 1200 м
[Sc]
+39.0 +13.3 22 +39 +42 очень
жарко
1004.7 979.2 +40.2

 

Местоположение метеостанции Наровал (Пакистан): широта 32.11 долгота 74.86 высота над уровнем моря 235 м.

В архиве по умолчанию представлена погода в Наровале за последнюю неделю. Архивные данные за месяц целиком и за предыдущие месяцы, начиная с января 2011 года, Вы можете получить, выбрав интересующий диапазон дат из раскрывающегося списка и нажав кнопку "Ввод!".


*Определитесь, кто Вы:
робот инопланетянин человек

Внимание! Время в таблицах - всемирное. Для получения местного времени необходимо прибавить поправку, которая равна 5 ч.

Смотрите также архив погоды в соседних городах и на ближайших метеорологических станциях:

Погода в Сиялкоте (Пакистан) (53 км)
Погода в Амритсаре (Пенджаб, Индия) (53 км)
Погода в Джамму (Джамму и Кашмир, Индия) (62 км)
Погода в Гуджранвале (Пакистан) (69 км)
Погода в Лахор аэропорту (Пакистан) (79 км)
Погода в Лахоре (Пакистан) (80 км)
Погода в Гуджрате (Пакистан) (85 км)
Погода в Сиалкот аэропорту (Пакистан) (91 км)
Погода в Катре (Джамму и Кашмир, Индия) (98 км)
Погода в Хафизабаде (Пакистан) (114 км)

Пояснения к столбцам:

Ветер - указаны скорость ветра в м/с - средняя за 10 мин, порывы в срок и между сроками (в фигурных скобках) и направление, откуда дует ветер: С - северный, СВ - северо-восточный, В - восточный, ЮВ - юго-восточный, Ю - южный, ЮЗ - юго-западный, З - западный, СЗ - северо-западный.
Видимость - горизонтальная дальность видимости в метрах или километрах. При видимости от 1 до 10 км при отсутствии осадков обычно наблюдается дымка, при ухудшении видимости до 1 км и менее - туман. В сухую погоду видимость может ухудшаться дымом, пылью или мглою.
Явления - указаны атмосферные явления, наблюдавшиеся в срок или в последний час перед сроком; фигурными скобками обозначены явления, наблюдавшиеся между сроками (за 1-3 часа до срока); квадратными скобками обозначены град или гололедные отложения с указанием их диаметра в мм.
Облачность - указаны через наклонную черту общая и нижняя облачность в баллах и высота нижней границы облаков в метрах; квадратными скобками обозначены формы облаков: Ci - перистые, Cs - перисто-слоистые, Cc - перисто-кучевые, Ac - высококучевые, As - высокослоистые, Sc - слоисто-кучевые, Ns - слоисто-дождевые, Cu - кучевые, Cb - кучево-дождевые. Подробнее классификацию облаков см. в Атласе облаков (PDF).
T - Температура воздуха - температура, измеренная на высоте 2 м над землей.
Td - Температура точки росы - температура, при понижении до которой содержащийся в воздухе водяной пар достигнет насыщения.
f - Относительная влажность воздуха - влажноcть воздуха, измеренная на высоте 2 м над землей.
Te - Эффективная температура - температура, которую ощущает одетый по сезону человек в тени. Характеристика душности погоды. При расчете учитывается влияние влажности воздуха и скорости ветра на теплоощущения человека.
Tes - Эффективная температура на солнце - температура, которую ощущает человек, с поправкой на солнечный нагрев. Характеристика знойности погоды. Зависит от высоты солнца над горизонтом, облачности и скорости ветра. Ночью, в пасмурную погоду, а также при ветре 12 м/с и более поправка равна нулю.
P - Атмосферное давление - приведенное к уровню моря атмосферное давление.
Po - Атмосферное давление - измеренное на уровне метеостанции атмосферное давление.
Tmin - Минимальная температура - минимум температуры воздуха на высоте 2 м над землей.
Tmax - Максимальная температура - максимум температуры воздуха на высоте 2 м над землей.
R - Количество осадков - Количество выпавших осадков за период времени, мм. При наведении курсора мыши на число - период времени, за который выпало указанное количество осадков.
R24 - Количество осадков - Количество выпавших осадков за 24 часа, мм.
S - Снежный покров - Высота снежного покрова, см. При наведении курсора мыши на число - состояние снежного покрова и степень покрытия местности в баллах.